Regional Weather Roundup
Issued by NWS State College, PA

Home | Current Version | Previous Version | Text Only | Print | Product List | Glossary On
Versions: 1 2 3 4 5 6 7 8 9 10 11 12 13 14 15 16 17 18 19 20 21 22 23 24 25 26 27 28 29 30 31 32 33 34 35 36 37 38 39 40 41 42 43 44 45 46 47 48 49 50
000
ASUS41 KCTP 312103
RWRCTP

REGIONAL WEATHER ROUNDUP
NATIONAL WEATHER SERVICE STATE COLLEGE PA
500 PM EDT MON AUG 31 2015

Note: "fair" indicates few or no clouds below 12,000 feet with no
significant weather and/or obstructions to visibility.

* = STATION THAT DOES NOT REPORT PRECIPITATION /E.G. RAIN...SNOW...ETC/
    THUNDER OR FOG.

PAZ002>004-007>009-013>016-020>023-029>032-312200-
WESTERN PENNSYLVANIA

CITY           SKY/WX    TMP DP  RH WIND       PRES   REMARKS
ERIE           FAIR      79  66  64 W7        30.06F
MEADVILLE      FAIR      83  67  58 MISG      30.09S
FRANKLIN*      PTSUNNY   82  66  57 W8        30.10S
NEW CASTLE     FAIR      87  69  54 CALM      30.07F
BEAVER COUNTY  MOSUNNY   84  64  51 CALM      30.07F
BUTLER*        FAIR      84  66  54 W7        30.09S
PITTSBURGH INT FAIR      88  62  41 W9        30.06F
PITTSBURGH     FAIR      87  56  34 W9        30.05F
INDIANA*       MOSUNNY   86  63  45 NW8       30.09F
LATROBE        MOSUNNY   84  63  48 NW8       30.06F
WASHINGTON CO* FAIR      88  63  42 NW9       30.08F
$$

PAZ004>006-010>012-017>019-024>028-033>037-041-042-045-046-049>053-312200-
CENTRAL PENNSYLVANIA

CITY           SKY/WX    TMP DP  RH WIND       PRES   REMARKS
BRADFORD       FAIR      81  62  52 NW10      30.10S
DUBOIS         PTSUNNY   85  63  47 NW8       30.08F
CLEARFIELD     FAIR      86  64  47 W7        30.07S
JOHNSTOWN      FAIR      83  60  45 NW10      30.11F
ALTOONA        FAIR      85  65  51 CALM      30.07F
STATE COLLEGE  MOSUNNY   86  64  48 W9        30.04F
WILLIAMSPORT   FAIR      88  67  49 SW8       29.98F
SELINSGROVE    FAIR      88  67  49 W3        29.99F
FT INDIANTOWN  PTSUNNY   86  69  56 NW5       30.00F
CAPITAL CITY   FAIR      86  68  54 W7        30.01S
HARRISBURG     PTSUNNY   87  71  58 SW3       30.00F
YORK           FAIR      83  70  64 SW3       30.02F
$$

PAZ038>040-043-044-047-048-054-055-060>062-067>071-312200-
EASTERN PENNSYLVANIA

CITY           SKY/WX    TMP DP  RH WIND       PRES   REMARKS
SCRANTON       FAIR      85  66  53 SW6       30.00F
MOUNT POCONO   FAIR      81  62  52 W14G20    30.06S
ALLENTOWN      FAIR      88  65  46 W9        29.98F
QUAKERTOWN*    FAIR      88  66  48 W8        30.01S
READING        FAIR      88  67  49 W6        29.98F
LANCASTER      FAIR      86  66  51 SW12      30.01F
COATESVILLE    FAIR      84  72  65 SW7       30.04S
POTTSTOWN      FAIR      87  66  49 VRB6      30.00F
BLUE BELL      FAIR      90  68  48 SW5       29.99F
DOYLESTOWN     FAIR      88  64  44 VRB7      29.98F
WILLOW GROVE   NOT AVBL
NORTH PHILA    FAIR      89  64  43 W14       30.00S
PHILADELPHIA   PTSUNNY   88  68  51 SW12      30.00S
$$


USA.gov is the U.S. government's official web portal to all federal, state and local government web resources and services.